This demonstration page uses our WeatherBlox Daily Observations layout. Learn more.

Left ArrowRight Arrow

Hourly Observations for February 4, 2015

Temp ( °F °C ) Dew Point ( °F °C ) Humidity (%) Winds ( mph kmh ) Pressure ( in mb ) Visibility ( mi km ) Precip ( " mm )
12:02 am 00:02 Clear with Fog 48 9 46 8 94 94 Calm 30.09 1019 0 0 0.00 0.00
12:24 am 00:24 Clear with Fog 48 9 46 8 94 94 Calm 30.09 1019 1 1 0.00 0.00
12:53 am 00:53 Clear with Fog 47 8.3 46 7.8 97 97 Calm 30.07 1018 1 1 0.00 0.00
1:00 am 01:00 Clear with Mist and Fog 46 8 46 8 100 100 Calm 30.09 1019 2 2 0.00 0.00
1:11 am 01:11 Clear with Mist and Fog 47 8.3 45 7.2 93 93 Calm 30.09 1019 1 2 0.00 0.00
1:24 am 01:24 Clear with Fog 46 8 45 7 93 93 Calm 30.09 1019 1 1 0.00 0.00
1:53 am 01:53 Clear with Mist and Fog 46 7.8 45 7.2 96 96 Calm 30.07 1018 1 2 0.00 0.00
2:01 am 02:01 Partly Cloudy with Mist and Fog 45 7.2 44 6.7 97 97 NE 3 6 30.06 1018 1 2 0.00 0.00
2:04 am 02:04 Mostly Cloudy with Mist and Fog 45 7 45 7 100 100 Calm 30.06 1018 1 1 0.00 0.00
2:19 am 02:19 Mostly Cloudy with Fog 44 6.7 44 6.7 100 100 Calm 30.06 1018 0 0 0.00 0.00
2:53 am 02:53 Mostly Cloudy with Fog 45 7.2 45 7.2 100 100 Calm 30.06 1018 0 0 0.00 0.00
3:15 am 03:15 Mostly Cloudy with Fog 45 7.2 45 7.2 100 100 Calm 30.06 1018 1 1 0.00 0.00
3:22 am 03:22 Mostly Cloudy with Fog 45 7 45 7 100 100 Calm 30.06 1018 0 0 0.00 0.00
3:53 am 03:53 Mostly Cloudy with Fog 44 6.7 44 6.7 100 100 Calm 30.05 1018 0 0 0.00 0.00
4:04 am 04:04 Mostly Cloudy with Fog 45 7 45 7 100 100 Calm 30.06 1018 1 1 0.00 0.00
4:15 am 04:15 Mostly Cloudy with Fog 44 6.7 44 6.7 100 100 Calm 30.06 1018 0 0 0.00 0.00
4:44 am 04:44 Mostly Cloudy with Fog 43 6 43 6 100 100 Calm 30.06 1018 1 1 0.00 0.00
4:53 am 04:53 Mostly Cloudy with Fog 43 6.1 43 6.1 100 100 Calm 30.06 1018 0 0 0.00 0.00
5:14 am 05:14 Mostly Cloudy with Fog 43 6 43 6 100 100 Calm 30.06 1018 1 1 0.00 0.00
5:26 am 05:26 Mostly Cloudy with Fog 43 6 43 6 100 100 Calm 30.06 1018 0 0 0.00 0.00
5:42 am 05:42 Mostly Cloudy with Mist and Fog 43 6 43 6 100 100 Calm 30.06 1018 1 2 0.00 0.00
5:53 am 05:53 Cloudy with Mist and Fog 42 5.6 42 5.6 100 100 Calm 30.06 1018 1 2 0.00 0.00
6:25 am 06:25 Mostly Cloudy with Fog 43 6.1 42 5.6 97 97 Calm 30.06 1018 1 1 0.00 0.00
6:32 am 06:32 Mostly Cloudy with Fog 43 6 43 6 100 100 Calm 30.06 1018 0 0 0.00 0.00
6:53 am 06:53 Mostly Cloudy with Fog 42 5.6 42 5.6 100 100 Calm 30.07 1018 0 0 0.00 0.00
7:12 am 07:12 Mostly Cloudy with Fog 43 6 43 6 100 100 Calm 30.09 1019 0 0 0.00 0.00
7:22 am 07:22 Mostly Cloudy with Mist and Fog 43 6 41 5 93 93 ENE 3 6 30.09 1019 1 1 0.00 0.00
7:32 am 07:32 Cloudy with Mist and Fog 43 6 41 5 93 93 Calm 30.09 1019 1 1 0.00 0.00
7:41 am 07:41 Mostly Cloudy with Fog 42 5.6 42 5.6 100 100 Calm 30.09 1019 0 0 0.00 0.00
7:53 am 07:53 Cloudy with Fog 42 5.6 42 5.6 100 100 ESE 3 6 30.08 1019 0 0 0.00 0.00
8:20 am 08:20 Cloudy with Fog 43 6 43 6 100 100 Calm 30.09 1019 1 1 0.00 0.00
8:46 am 08:46 Mostly Cloudy with Mist and Fog 45 7 45 7 100 100 Calm 30.12 1020 2 2 0.00 0.00
8:53 am 08:53 Mostly Cloudy with Mist and Fog 45 7.2 44 6.7 97 97 Calm 30.10 1019 1 2 0.00 0.00
9:03 am 09:03 Cloudy with Mist and Fog 45 7 45 7 100 100 Calm 30.12 1020 1 2 0.00 0.00
9:14 am 09:14 Cloudy with Mist and Fog 46 7.8 46 7.8 100 100 Calm 30.12 1020 1 2 0.00 0.00
9:27 am 09:27 Cloudy with Mist and Fog 47 8.3 46 7.8 97 97 Calm 30.12 1020 1 2 0.00 0.00
9:40 am 09:40 Mostly Cloudy with Mist and Fog 48 9 46 8 94 94 Calm 30.09 1019 2 3 0.00 0.00
9:53 am 09:53 Mostly Cloudy with Mist and Fog 50 10 48 8.9 93 93 Calm 30.10 1019 2 3 0.00 0.00
10:00 am 10:00 Mostly Cloudy N/A N/A N/A Calm N/A 10 16 0.00 0.00
10:46 am 10:46 Cloudy 52 11 50 10 94 94 Calm 30.12 1020 10 16 0.00 0.00
10:53 am 10:53 Cloudy 51 10.6 50 10 96 96 Calm 30.10 1019 10 16 0.00 0.00
11:23 am 11:23 Partly Cloudy N/A N/A N/A Calm N/A 10 16 0.00 0.00
11:53 am 11:53 Mostly Sunny 56 13.3 52 11.1 87 87 Calm 30.09 1019 10 16 0.00 0.00
12:53 pm 12:53 Sunny 58 14.4 51 10.6 78 78 Calm 30.06 1018 10 16 0.00 0.00
1:53 pm 13:53 Mostly Sunny 59 15 51 10.6 75 75 NNE 3 6 30.04 1017 10 16 0.00 0.00
2:53 pm 14:53 Mostly Sunny 60 15.6 51 10.6 72 72 Calm 30.02 1017 10 16 0.00 0.00
3:53 pm 15:53 Mostly Sunny 60 15.6 52 11.1 75 75 Calm 30.01 1016 10 16 0.00 0.00
4:53 pm 16:53 Sunny 58 14.4 52 11.1 81 81 SW 3 6 30.00 1016 10 16 0.00 0.00
5:53 pm 17:53 Clear 56 13.3 52 11.1 87 87 Calm 30.00 1016 10 16 0.00 0.00
6:28 pm 18:28 Mostly Cloudy 55 13 52 11 88 88 Calm 30.00 1016 10 16 0.00 0.00
6:53 pm 18:53 Partly Cloudy 53 11.7 51 10.6 93 93 Calm 30.00 1016 9 14 0.00 0.00
7:53 pm 19:53 Clear 53 11.7 50 10 89 89 Calm 30.00 1016 10 16 0.00 0.00
8:53 pm 20:53 Clear 53 11.7 50 10 89 89 Calm 30.00 1016 8 13 0.00 0.00
9:53 pm 21:53 Clear 52 11.1 50 10 93 93 WNW 3 6 30.00 1016 8 13 0.00 0.00
10:53 pm 22:53 Mostly Cloudy with Mist and Fog 49 9.4 48 8.9 97 97 W 5 7 29.98 1015 4 6 0.00 0.00
11:28 pm 23:28 Partly Cloudy with Mist and Fog 48 9 46 8 94 94 Calm 29.97 1015 2 2 0.00 0.00
11:36 pm 23:36 Partly Cloudy with Mist and Fog 48 9 48 9 100 100 Calm 29.97 1015 1 2 0.00 0.00
11:44 pm 23:44 Mostly Clear with Fog 48 9 48 9 100 100 ENE 3 6 29.97 1015 1 1 0.00 0.00
11:53 pm 23:53 Clear with Mist and Fog 48 8.9 47 8.3 96 96 Calm 29.97 1015 1 2 0.00 0.00

Powered by AerisWeather